#timestamp,LO_Frequency,Hit,StdDev 
1621749615.7,286046996.6,N
1621749635.5,286046995.5,N
1621749655.3,286046999.6,N
1621749675.2,286046998.7,N
1621749695.0,286047001.1,N
1621749695.9,286047001.1,N
1621749715.8,286046998.4,N
1621749735.6,286046998.2,N
1621749755.4,286046999.4,N
1621749775.3,286047002.8,N
1621749795.1,286047000.9,N
1621749815.8,286047002.5,N
1621749835.7,286047002.8,N
1621749855.5,286047000.1,N
1621749875.4,286046999.7,N
1621749895.2,286047000.2,N
1621749915.0,286047002.1,N
1621749915.9,286047002.1,N
1621749935.8,286046998.2,N
1621749955.6,286046998.5,N
1621749975.5,286046998.5,N
1621749995.3,286047001.2,N
1621750015.1,286046998.1,N
1621750035.9,286046999.3,N
1621750055.7,286046997.8,N
1621750075.5,286046995.1,N
1621750095.4,286046994.9,N
1621750115.2,286046999.6,N
1621750135.1,286046999.3,N
1621750136.0,286046999.3,N
1621750155.8,286046998.8,N
1621750175.6,286046996.5,N
1621750195.5,286047001.1,N
1621750215.3,286047001.8,N
1621750235.1,286047001.9,N
1621750255.9,286047001.6,N
1621750275.7,286047002.5,N
1621750295.6,286047000.9,N
1621750315.4,286046999.6,N
1621750335.2,286046998.4,N
1621750355.1,286046999.1,N
1621750356.0,286046999.1,N
1621750375.8,286046995.8,N
1621750395.7,286046996.0,N
1621750415.5,286046997.5,N
1621750435.3,286046997.0,N
1621750455.2,286046997.1,N
1621750475.0,286047001.1,N
1621750475.9,286047001.1,N
1621750495.8,286046998.9,N
1621750515.6,286047000.4,N
1621750535.4,286046999.3,N
1621750555.3,286046998.3,N
1621750575.1,286046996.7,N
1621750595.9,286046995.8,N
1621750615.7,286046997.5,N
1621750635.5,286046996.6,N
1621750655.4,286047000.8,N
1621750675.2,286046999.3,N
1621750695.1,286047000.9,N
1621750696.0,286047000.9,N
1621750715.8,286047000.4,N
1621750735.6,286046998.7,N
1621750755.5,286047000.9,N
1621750775.3,286047000.1,N
1621750795.1,286046999.2,N
1621750815.9,286046996.9,N
1621750835.7,286046998.4,N
1621750855.6,286047000.7,N
1621750875.4,286046998.1,N
1621750895.2,286046998.1,N
1621750915.1,286046996.5,N
1621750916.0,286046996.5,N
1621750935.8,286046999.5,N
1621750955.7,286046996.9,N
1621750975.5,286046999.5,N
1621750995.3,286047001.1,N
1621751015.2,286047001.2,N
1621751035.0,286047000.1,N
1621751035.9,286047000.1,N
1621751055.8,286046999.8,N
1621751075.6,286047001.9,N
1621751095.4,286047002.0,N
1621751115.3,286047001.2,N
1621751135.1,286046997.5,N
1621751155.8,286046998.5,N
1621751175.7,286046999.9,N
1621751195.5,286046999.8,N
1621751215.4,286046999.0,N
1621751235.2,286046996.5,N
1621751255.0,286047001.2,N
1621751255.9,286047001.2,N
1621751275.8,286047000.7,N
1621751295.6,286046999.9,N
1621751315.4,286046998.8,N
1621751335.3,286047000.3,N
1621751355.1,286047000.7,N
1621751375.9,286047001.2,N
1621751395.7,286046998.8,N
1621751415.5,286046999.9,N
1621751435.4,286046998.2,N
1621751455.2,286046999.7,N
1621751475.0,286047002.2,N
1621751475.9,286047002.2,N
1621751495.8,286047002.7,N
1621751515.6,286047000.2,N
1621751535.5,286046999.3,N
1621751555.3,286046997.3,N
1621751575.1,286046996.0,N
1621751595.9,286046995.0,Y
1621751615.7,286046996.8,P
1621751635.6,286046998.3,N
1621751655.4,286046999.1,N
1621751675.2,286046997.4,N
1621751695.1,286046997.1,N
1621751696.0,286046997.1,N
1621751715.8,286046996.5,Y
1621751735.7,286047001.4,P
1621751755.5,286047002.7,N
1621751775.3,286047002.7,N
1621751795.2,286047002.8,N
1621751815.0,286047000.2,N
1621751815.9,286047000.2,N
1621751835.7,286047004.0,N
1621751855.6,286046999.8,N
1621751875.4,286047000.4,N
1621751895.3,286047001.5,N
1621751915.1,286047002.4,N
1621751916.0,286047002.4,N
1621751935.8,286047004.0,N
1621751955.7,286047003.3,N
1621751975.5,286047004.1,N
1621751995.4,286047003.7,N
1621752015.2,286047004.1,N
1621752035.0,286047003.1,N
1621752035.9,286047003.1,N
1621752055.8,286047003.9,N
1621752075.6,286047001.8,N
1621752095.5,286047003.6,N
1621752115.3,286047001.7,N
1621752135.1,286047000.5,N
1621752155.9,286046999.7,N
1621752175.7,286047001.8,N
1621752195.5,286047003.7,N
1621752215.4,286047003.2,N
1621752235.2,286047005.8,Y
1621752255.1,286047002.1,P
1621752256.0,286047002.1,P
1621752275.8,286047004.4,P
1621752295.7,286047001.7,N
1621752315.5,286047000.9,N
1621752335.3,286046999.7,N
1621752355.2,286047000.3,N
1621752375.0,286047002.3,N
1621752375.9,286047002.3,N
1621752395.7,286047002.7,N
1621752415.6,286047001.1,N
1621752435.4,286046999.3,N
1621752455.3,286046999.3,N
1621752475.1,286046996.7,N
1621752476.0,286046996.7,N
1621752495.8,286046998.0,N
1621752515.7,286046996.2,N
1621752535.5,286046997.1,N
1621752555.4,286046997.8,N
1621752575.2,286046995.8,N
1621752595.0,286046996.1,N
1621752595.9,286046996.1,N
1621752615.8,286046993.7,N
1621752635.6,286046995.7,N
1621752655.4,286046997.7,N
1621752675.3,286046995.9,N
1621752695.1,286046995.9,N
1621752715.9,286046994.3,N
1621752735.7,286046992.3,N
1621752755.5,286046994.2,N
1621752775.4,286046998.0,N
1621752795.2,286046996.7,N
1621752815.1,286046995.1,N
1621752816.0,286046995.1,N
1621752835.8,286046995.1,N
1621752855.6,286046997.4,N
1621752875.5,286046996.5,N
1621752895.3,286046994.9,N
1621752915.1,286046997.4,N
1621752935.9,286046996.0,N
1621752955.7,286046992.9,Y
1621752975.6,286046993.3,P
1621752995.4,286046995.5,N
1621753015.2,286046997.2,N
1621753035.1,286046999.3,N
1621753036.0,286046999.3,N
1621753055.8,286047002.4,N
1621753075.6,286046999.9,N
1621753095.5,286047001.2,N
1621753115.3,286046999.4,N
1621753135.2,286046999.0,N
1621753155.9,286046998.9,N
1621753175.7,286047000.9,N
1621753195.6,286046998.1,N
